GW3570 Weather Reports


Display with metric or nautical units.
time (UTC)temp
F
wind
direction
speed
MPH
gust
MPH
rain 1hr
in
rain 24hr
in
rain mn
in
humidity
%
barometer
mb
20260506020939 45 227 0.0 0.0 0.12 0.38 0.38 95 1014.1
20260506020437 45 213 0.0 0.0 0.05 0.37 0.37 95 1014.0
20260506015934 45 249 0.0 0.0 0.07 0.36 0.36 95 1013.9
20260506015432 45 226 0.0 0.0 0.07 0.36 0.36 94 1013.7
20260506014928 45 206 0.0 0.0 0.00 0.35 0.35 94 1013.9
20260506014426 45 204 0.0 0.0 0.00 0.35 0.35 94 1013.8
20260506013922 45 244 1.0 1.0 0.00 0.35 0.35 94 1013.8
20260506013420 45 206 0.0 0.0 0.00 0.35 0.35 94 1013.8
20260506012916 45 226 0.0 1.0 0.00 0.35 0.35 94 1013.2
20260506012412 45 210 0.0 0.0 0.00 0.35 0.35 94 1013.0
20260506011910 45 238 1.0 1.0 0.05 0.35 0.35 94 1012.8
20260506011407 45 230 1.0 1.0 0.05 0.35 0.35 94 1012.8
20260506010904 45 223 1.0 1.0 0.00 0.34 0.34 94 1012.5
20260506010402 45 212 0.0 0.0 0.00 0.34 0.34 94 1012.7
20260506005858 45 272 1.0 1.0 0.00 0.34 0.34 94 1013.1
20260506005356 45 274 2.0 2.0 0.00 0.34 0.34 94 1013.2
20260506004851 45 179 0.0 0.0 0.00 0.34 0.34 94 1013.3
20260506004349 45 238 0.0 1.0 0.00 0.34 0.34 94 1012.9
20260506003845 46 328 1.0 2.0 0.00 0.34 0.34 95 1013.2
20260506003341 46 299 2.0 2.0 0.00 0.34 0.34 95 1013.1
20260506002838 46 314 2.0 3.0 0.00 0.34 0.34 94 1013.0
20260506002334 46 339 2.0 2.0 0.00 0.34 0.34 94 1013.1
20260506001830 46 268 1.0 1.0 0.00 0.34 0.34 94 1013.2
20260506001327 46 319 3.0 3.0 0.00 0.34 0.34 94 1012.8
20260506000824 46 262 0.0 1.0 0.00 0.34 0.34 94 1012.8
20260506000323 46 312 1.0 2.0 0.00 0.34 0.34 94 1012.8
20260505235819 46 306 2.0 2.0 0.00 0.34 0.34 94 1013.1
20260505235316 46 226 0.0 0.0 0.00 0.34 0.34 94 1012.7
20260505234813 46 337 2.0 2.0 0.00 0.34 0.34 94 1013.1
20260505234311 46 210 1.0 1.0 0.00 0.34 0.34 94 1012.7
20260505233807 46 359 4.0 5.0 0.00 0.34 0.34 94 1013.0
20260505233305 46 337 2.0 2.0 0.00 0.34 0.34 94 1012.9
20260505232802 47 266 1.0 2.0 0.00 0.34 0.34 94 1012.6
20260505232300 46 319 3.0 3.0 0.00 0.34 0.34 93 1012.6
20260505231756 47 211 0.0 0.0 0.00 0.34 0.34 93 1012.5
20260505231255 47 219 0.0 0.0 0.00 0.34 0.34 93 1012.8
20260505230753 47 326 1.0 1.0 0.00 0.34 0.34 93 1012.7
20260505230249 47 290 1.0 2.0 0.00 0.34 0.34 93 1012.2
20260505225746 47 358 2.0 2.0 0.00 0.34 0.34 94 1012.2
20260505225243 47 290 1.0 1.0 0.00 0.34 0.34 94 1012.4
20260505224738 48 241 1.0 2.0 0.00 0.34 0.34 94 1012.4
20260505224236 47 258 1.0 1.0 0.07 0.34 0.34 94 1012.3
20260505223733 47 106 1.0 2.0 0.07 0.34 0.34 94 1012.0
20260505223229 48 256 1.0 2.0 0.00 0.33 0.33 94 1012.3
20260505222725 48 227 0.0 0.0 0.00 0.33 0.33 95 1012.7
20260505222221 48 229 0.0 0.0 0.07 0.33 0.33 95 1012.3
20260505221719 48 355 2.0 2.0 0.00 0.32 0.32 94 1012.4
20260505221215 48 218 0.0 0.0 0.00 0.32 0.32 94 1012.1
20260505220712 48 214 0.0 0.0 0.00 0.32 0.32 94 1012.3
20260505220210 48 217 0.0 0.0 0.05 0.32 0.32 94 1012.1
20260505215708 48 219 0.0 0.0 0.05 0.32 0.32 94 1012.1
20260505215206 48 204 0.0 0.0 0.07 0.31 0.31 94 1011.8
20260505214703 48 249 2.0 2.0 0.07 0.31 0.31 94 1012.3
20260505214200 48 192 0.0 0.0 0.05 0.30 0.30 94 1012.5
20260505213658 48 202 0.0 0.0 0.05 0.30 0.30 94 1012.2
20260505213155 48 225 1.0 1.0 0.00 0.29 0.29 93 1012.4
20260505212650 48 266 1.0 2.0 0.00 0.29 0.29 93 1012.4
20260505212148 48 338 2.0 2.0 0.00 0.29 0.29 92 1012.5
20260505211645 48 184 0.0 0.0 0.00 0.29 0.29 92 1012.4
20260505211142 48 176 0.0 0.0 0.00 0.29 0.29 92 1012.3
20260505210639 48 196 0.0 0.0 0.00 0.29 0.29 92 1012.1
20260505210135 48 196 0.0 0.0 0.00 0.29 0.29 92 1012.2
20260505205632 48 268 1.0 1.0 0.00 0.29 0.29 92 1012.5
20260505205130 48 277 2.0 2.0 0.00 0.29 0.29 92 1012.4
20260505204622 48 224 1.0 1.0 0.00 0.29 0.29 91 1012.2
20260505204119 48 343 2.0 2.0 0.00 0.29 0.29 91 1012.3
20260505203615 48 261 1.0 1.0 0.00 0.29 0.29 90 1012.1
20260505203112 48 252 2.0 2.0 0.00 0.29 0.29 90 1012.0
20260505202603 48 190 1.0 1.0 0.00 0.29 0.29 90 1011.9
20260505202059 48 210 0.0 0.0 0.00 0.29 0.29 91 1012.1
20260505201556 48 235 2.0 2.0 0.00 0.29 0.29 91 1012.1
20260505201054 48 304 2.0 3.0 0.00 0.29 0.29 91 1012.5
20260505200551 48 243 2.0 2.0 0.00 0.29 0.29 91 1012.3
20260505200048 48 227 1.0 1.0 0.00 0.29 0.29 92 1012.3
20260505195544 48 354 3.0 6.0 0.00 0.29 0.29 92 1012.2
20260505195041 48 248 1.0 1.0 0.00 0.29 0.29 92 1012.3
20260505194533 48 231 0.0 0.0 0.00 0.29 0.29 91 1012.3
20260505194028 49 293 1.0 2.0 0.00 0.29 0.29 91 1012.1
20260505193526 49 153 2.0 2.0 0.07 0.29 0.29 90 1012.1
20260505193023 48 279 1.0 1.0 0.07 0.29 0.29 90 1012.0
20260505192521 48 232 0.0 0.0 0.00 0.28 0.28 90 1012.5
20260505192019 48 77 2.0 2.0 0.00 0.28 0.28 90 1012.5
20260505191517 48 217 0.0 0.0 0.00 0.28 0.28 90 1012.4
20260505191014 48 162 1.0 1.0 0.00 0.28 0.28 90 1012.3
20260505190509 48 294 1.0 1.0 0.00 0.28 0.28 90 1012.6
20260505190005 47 218 0.0 0.0 0.00 0.28 0.28 90 1012.6
20260505185502 47 250 1.0 2.0 0.00 0.28 0.28 90 1012.5
20260505184958 47 67 1.0 1.0 0.00 0.28 0.28 90 1012.8
20260505184455 47 196 0.0 0.0 0.00 0.28 0.28 90 1012.8
20260505183951 48 329 5.0 6.0 0.00 0.28 0.28 90 1012.4
20260505183449 48 243 0.0 0.0 0.00 0.28 0.28 90 1011.9
20260505182945 48 228 0.0 1.0 0.00 0.28 0.28 90 1012.4
20260505182442 48 191 1.0 1.0 0.00 0.28 0.28 90 1012.5
20260505181938 48 279 1.0 2.0 0.00 0.28 0.28 89 1012.5
20260505181436 48 12 5.0 6.0 0.05 0.28 0.28 88 1012.9
20260505180933 49 318 3.0 3.0 0.05 0.28 0.28 86 1012.9
20260505180429 50 341 2.0 3.0 0.00 0.27 0.27 84 1012.3
20260505175926 50 223 0.0 1.0 0.00 0.27 0.27 83 1012.6
20260505175422 50 331 4.0 5.0 0.00 0.27 0.27 82 1012.4
20260505174918 50 216 0.0 0.0 0.00 0.27 0.27 82 1012.3
20260505174416 50 331 1.0 2.0 0.00 0.27 0.27 83 1012.2
20260505173912 50 222 0.0 0.0 0.00 0.27 0.27 83 1012.7
20260505173408 50 294 2.0 2.0 0.00 0.27 0.27 82 1012.5
20260505172906 51 1 4.0 5.0 0.00 0.27 0.27 82 1012.6
20260505172404 51 1 5.0 8.0 0.00 0.27 0.27 82 1013.0
20260505171903 51 358 5.0 6.0 0.00 0.27 0.27 84 1012.8
20260505171400 51 359 5.0 6.0 0.00 0.27 0.27 82 1012.6
20260505170856 52 298 2.0 2.0 0.00 0.27 0.27 84 1012.2
20260505170354 52 233 2.0 2.0 0.00 0.27 0.27 84 1011.9
20260505165849 52 299 2.0 3.0 0.00 0.27 0.27 84 1011.7
20260505165344 52 48 1.0 2.0 0.00 0.27 0.27 86 1011.9
20260505164840 52 245 1.0 2.0 0.00 0.27 0.27 85 1011.8
20260505164337 52 301 3.0 3.0 0.00 0.27 0.27 85 1012.1
20260505163836 52 336 3.0 5.0 0.00 0.27 0.27 85 1011.5
20260505163334 52 160 1.0 1.0 0.00 0.27 0.27 86 1011.8
20260505162832 52 199 0.0 0.0 0.00 0.27 0.27 87 1012.0
20260505162328 52 191 0.0 1.0 0.00 0.27 0.27 88 1012.0
20260505161825 51 255 1.0 1.0 0.00 0.27 0.27 89 1012.0
20260505161322 51 265 1.0 2.0 0.00 0.27 0.27 90 1011.6
20260505160820 50 193 0.0 0.0 0.07 0.27 0.27 90 1011.8
20260505160318 50 321 0.0 0.0 0.07 0.27 0.27 90 1012.0
20260505153256 51 13 3.0 3.0 0.00 0.23 0.23 83 1013.4
20260505152754 51 258 1.0 2.0 0.00 0.23 0.23 82 1013.4
20260505152249 51 337 5.0 6.0 0.00 0.23 0.23 81 1013.2
20260505151744 52 348 3.0 5.0 0.00 0.23 0.23 81 1012.7
20260505151242 52 347 4.0 6.0 0.00 0.23 0.23 82 1012.4
20260505150738 52 314 3.0 5.0 0.00 0.23 0.23 81 1011.9
20260505150235 53 340 2.0 2.0 0.00 0.23 0.23 82 1011.6
20260505140200 51 149 1.0 2.0 0.00 0.23 0.23 86 1010.6
20260505130124 50 330 2.0 2.0 0.00 0.23 0.23 88 1010.7
20260505124613 50 240 3.0 3.0 0.00 0.23 0.23 90 1010.0
20260505124110 50 85 1.0 2.0 0.00 0.23 0.23 91 1010.0
20260505123606 50 232 2.0 3.0 0.00 0.23 0.23 92 1009.9
20260505123103 50 173 0.0 0.0 0.00 0.23 0.23 92 1009.9
20260505122559 50 188 2.0 3.0 0.00 0.23 0.23 93 1009.7
20260505122056 49 189 0.0 0.0 0.00 0.23 0.23 94 1009.8
20260505121553 50 173 2.0 2.0 0.00 0.23 0.23 94 1009.7
20260505121049 49 157 2.0 2.0 0.00 0.23 0.23 94 1010.1
20260505120546 50 218 0.0 0.0 0.00 0.23 0.23 95 1009.9
20260505120042 49 136 2.0 2.0 0.00 0.23 0.23 95 1009.7
20260505115536 49 162 2.0 3.0 0.00 0.23 0.23 95 1009.9
20260505115034 50 215 0.0 1.0 0.00 0.23 0.23 95 1010.6
20260505114531 50 237 1.0 1.0 0.00 0.23 0.23 94 1010.6
20260505114027 50 347 3.0 5.0 0.00 0.23 0.23 94 1010.7
20260505113524 50 322 2.0 2.0 0.00 0.23 0.23 94 1010.7
20260505113020 50 281 3.0 5.0 0.00 0.23 0.23 94 1010.2
20260505112516 50 358 1.0 2.0 0.00 0.23 0.23 94 1009.9
20260505112014 49 249 2.0 3.0 0.00 0.23 0.23 94 1009.5
20260505111508 49 186 0.0 1.0 0.00 0.23 0.23 94 1009.1
20260505111005 49 32 2.0 2.0 0.00 0.23 0.23 94 1008.7
20260505110501 49 350 3.0 5.0 0.00 0.23 0.23 94 1008.8
20260505101932 50 276 3.0 5.0 0.00 0.23 0.23 94 1007.9
20260505101426 50 237 1.0 1.0 0.00 0.23 0.23 93 1008.2
20260505100922 51 134 1.0 1.0 0.00 0.23 0.23 93 1008.5
20260505100420 51 217 3.0 3.0 0.07 0.23 0.23 93 1008.6
20260505095915 51 18 3.0 5.0 0.12 0.23 0.23 93 1008.8
20260505095413 52 49 3.0 3.0 0.12 0.22 0.22 92 1009.6
20260505094908 52 188 3.0 5.0 0.19 0.21 0.21 92 1010.8
20260505094406 52 217 2.0 2.0 0.24 0.20 0.20 92 1010.6
20260505093901 52 295 3.0 3.0 0.24 0.18 0.18 92 1010.0
20260505093359 53 350 5.0 6.0 0.35 0.16 0.16 91 1009.7
20260505092856 53 311 5.0 6.0 0.47 0.13 0.13 90 1009.9
20260505092354 53 351 10.0 14.0 0.42 0.09 0.09 87 1009.5
20260505091851 55 327 8.0 15.0 0.24 0.04 0.04 85 1009.2
20260505091349 57 302 5.0 7.0 0.07 0.01 0.01 82 1008.9
20260505090847 60 1 9.0 11.0 0.00 0.00 0.00 75 1008.0
20260505090345 61 321 3.0 6.0 0.00 0.00 0.00 68 1007.5
20260505085841 62 338 9.0 11.0 0.00 0.00 0.00 66 1006.8
20260505085339 64 6 8.0 11.0 0.00 0.00 0.00 64 1006.6
20260505084837 66 4 18.0 22.0 0.00 0.00 0.00 65 1006.1
20260505084335 68 311 5.0 6.0 0.00 0.00 0.00 70 1005.5
20260505083832 68 334 3.0 3.0 0.00 0.00 0.00 69 1005.5
20260505083330 67 9 4.0 5.0 0.00 0.00 0.00 71 1005.2
20260505082826 66 7 4.0 5.0 0.00 0.00 0.00 74 1005.0
20260505082322 67 68 1.0 2.0 0.00 0.00 0.00 74 1004.7
20260505081819 67 139 1.0 1.0 0.00 0.00 0.00 73 1004.5
20260505081316 68 176 0.0 0.0 0.00 0.00 0.00 71 1004.5
20260505080812 68 205 0.0 0.0 0.00 0.00 0.00 71 1004.5
20260505080309 68 201 1.0 1.0 0.00 0.00 0.00 69 1004.3
20260505075804 68 197 2.0 2.0 0.00 0.00 0.00 70 1004.6
20260505075304 68 182 0.0 1.0 0.00 0.00 0.00 69 1004.3
20260505074758 68 180 0.0 0.0 0.00 0.00 0.00 70 1004.2
20260505074256 68 214 1.0 2.0 0.00 0.00 0.00 69 1004.2
20260505073753 68 185 2.0 2.0 0.00 0.00 0.00 71 1004.5
20260505073251 68 168 1.0 2.0 0.00 0.00 0.00 71 1004.5
20260505072747 68 189 2.0 2.0 0.00 0.00 0.00 69 1004.7
20260505072244 68 178 2.0 2.0 0.00 0.00 0.00 70 1004.7
20260505071739 68 186 2.0 2.0 0.00 0.00 0.00 71 1004.8
20260505071236 67 195 1.0 1.0 0.00 0.00 0.00 73 1005.0
20260505070734 67 178 0.0 0.0 0.00 0.00 0.00 75 1004.9
20260505070230 67 187 0.0 0.0 0.00 0.00 0.00 73 1005.1
20260505065726 67 190 0.0 0.0 0.00 0.00 0.00 72 1005.1
20260505065223 68 176 0.0 0.0 0.00 0.00 0.00 73 1005.3
20260505064720 68 177 0.0 0.0 0.00 0.00 0.00 71 1005.5
20260505064218 68 178 0.0 0.0 0.00 0.00 0.00 70 1005.6
20260505063715 68 189 0.0 0.0 0.00 0.00 0.00 70 1005.6
20260505063211 68 231 0.0 0.0 0.00 0.00 0.00 69 1005.7
20260505062707 68 127 1.0 1.0 0.00 0.00 0.00 70 1005.9
20260505062205 69 203 0.0 0.0 0.00 0.00 0.00 67 1005.8
20260505061702 69 184 4.0 5.0 0.00 0.00 0.00 67 1005.8
20260505061200 69 141 2.0 3.0 0.00 0.00 0.00 68 1005.7
20260505060657 69 31 2.0 2.0 0.00 0.00 0.00 70 1005.3
20260505060154 69 113 1.0 1.0 0.00 0.00 0.00 70 1005.5
20260505055649 69 210 1.0 1.0 0.00 0.00 0.00 68 1005.1
20260505055146 69 214 1.0 2.0 0.00 0.00 0.00 68 1004.9
20260505054643 69 201 1.0 2.0 0.00 0.00 0.00 70 1004.5
20260505054141 69 193 2.0 2.0 0.00 0.00 0.00 69 1004.3
20260505053639 69 169 1.0 1.0 0.00 0.00 0.00 69 1004.2
20260505053135 69 214 2.0 2.0 0.00 0.00 0.00 67 1004.2
20260505052632 69 214 2.0 2.0 0.00 0.00 0.00 67 1004.0
20260505052129 69 179 1.0 2.0 0.00 0.00 0.00 69 1004.2
20260505051626 69 186 1.0 2.0 0.00 0.00 0.00 67 1004.4
20260505051124 70 195 0.0 0.0 0.00 0.00 0.00 69 1004.5
20260505050622 70 198 2.0 2.0 0.00 0.00 0.00 67 1004.6
20260505050120 70 184 1.0 2.0 0.00 0.00 0.00 68 1004.6
20260505041549 71 226 1.0 1.0 0.00 0.00 0.00 62 1005.6
20260505041047 71 191 3.0 3.0 0.00 0.00 0.00 62 1005.3
20260505040544 72 204 2.0 2.0 0.00 0.00 0.00 64 1005.6
20260505040041 71 184 4.0 6.0 0.00 0.00 0.00 62 1005.5
20260505035537 71 197 2.0 3.0 0.00 0.00 0.00 63 1005.6
20260505035034 72 188 3.0 3.0 0.00 0.00 0.00 63 1005.7
20260505034530 72 217 1.0 1.0 0.00 0.00 0.00 63 1005.7
20260505034027 72 202 0.0 0.0 0.00 0.00 0.00 62 1005.8
20260505033524 72 194 0.0 0.0 0.00 0.00 0.00 62 1005.9
20260505033023 72 194 0.0 0.0 0.00 0.00 0.00 63 1005.9
20260505032520 72 188 1.0 1.0 0.00 0.00 0.00 63 1005.7
20260505032016 73 200 1.0 1.0 0.00 0.00 0.00 61 1005.8
20260505031514 73 214 2.0 2.0 0.00 0.00 0.00 59 1005.6
20260505031010 73 181 2.0 2.0 0.00 0.00 0.00 59 1005.7
20260505030507 73 204 4.0 6.0 0.00 0.00 0.00 59 1005.2
20260505030003 73 183 3.0 3.0 0.00 0.00 0.00 59 1005.2
20260505025459 73 206 3.0 3.0 0.00 0.00 0.00 61 1005.3
20260505024958 73 203 0.0 0.0 0.00 0.00 0.00 59 1005.1
20260505024454 74 218 1.0 2.0 0.00 0.00 0.00 59 1005.2
20260505023952 74 221 2.0 2.0 0.00 0.00 0.00 57 1005.0
20260505023448 74 208 1.0 2.0 0.00 0.00 0.00 57 1004.9
20260505022946 74 177 3.0 5.0 0.00 0.00 0.00 59 1005.0
20260505022444 74 222 4.0 5.0 0.00 0.00 0.00 58 1004.8
20260505021941 74 200 2.0 2.0 0.00 0.00 0.00 59 1004.7
20260505021437 74 205 0.0 0.0 0.00 0.00 0.00 63 1004.9